Zurück zum Katalog

HULIANWANG DIGUI-165

AktivKommunikationPO
NORAD 68657·PAYLOAD·🇨🇳 China

Gestartet Apr 8, 2026 von Taiyuan Satellite Launch Center

Loading…

Nächste Überflüge (nächste 24 Stunden)

TLE

AktuellSource: Space-Track

Epoche: Sep 14, 2026, 13:38 UTC

1 68657U 26076B   26257.56825704  .00000034  00000-0  45129-4 0  9994
2 68657  86.5048  13.7277 0001256 108.5964 251.5307 13.24409760 21203

Verfolge HULIANWANG DIGUI-165 in Echtzeit mit AllMySat

Download on the App Store